FREGAT R/B (43088 NORAD) Tracking and Keplerian Element Data

This shows tracking and keplerian element data for the satellite.

Feedback or suggestion? Click here.




ElementValue
Catalog43088
NameFREGAT R/B
Epoch Orbit22
Epoch Day17.92186127
Epoch Year2018
RAAN18.5587
Inclination0.2137
Eccentricity0.0105235
Argument of Perigee27.5316
Mean Anonmoly314.757
Mean Motion0.98388723
Decay Rate-7.4E-07
L11 43088U 17086B 18017.92186127 -.00000074 00000-0 00000-0 0 9990
L22 43088 0.2137 18.5587 0105235 27.5316 314.7570 0.98388723 221



Live tracking and technical data element details for FREGAT R/B (NORAD 43088). FREGAT R/B can be tracked NOW for your location showing map with azimuth and elevation plus other details from your city location.







IsCatalogInMostPopularTable: catalog: 43088, numindb: 526
Update: records affected: 1



GetName: 43088 FREGAT R/B

Hit Count: updated at: Thu, 22 May 2025 04:08:42 GMT